datetime,snow depth
2004-06-26,0.0
2004-06-27,0.0
2004-06-28,0.0
2004-06-29,0.0
2004-06-30,0.0
2004-07-01,0.0
2004-07-02,0.0
2004-07-03,0.0
2004-07-04,0.0
2004-07-05,0.0
2004-07-06,0.0
2004-07-07,0.0
2004-07-08,0.0
2004-07-09,0.0
2004-07-10,0.0
2004-07-11,0.0
2004-07-12,0.0
2004-07-13,0.0
2004-07-14,0.0
2004-07-15,0.0
2004-07-16,0.0
2004-07-17,0.0
2004-07-18,0.0
2004-07-19,0.0
2004-07-20,0.0
2004-07-21,0.0
2004-07-22,0.0
2004-07-23,0.0
2004-07-24,0.0
2004-07-25,0.0
2004-07-26,0.0
2004-07-27,0.0
2004-07-28,0.0
2004-07-29,0.0
2004-07-30,0.0
2004-07-31,0.0
2004-08-01,0.0
2004-08-02,0.0
2004-08-03,0.0
2004-08-04,0.0
2004-08-05,0.0
2004-08-06,0.0
2004-08-07,0.0
2004-08-08,0.0
2004-08-09,0.0
2004-08-10,0.0
2004-08-11,0.0
2004-08-12,0.0
2004-08-13,0.0
2004-08-14,0.0
2004-08-15,0.0
2004-08-16,0.0
2004-08-17,0.0
2004-08-18,0.0
2004-08-19,0.0
2004-08-20,0.0
2004-08-21,0.0
2004-08-22,0.0
2004-08-23,0.0
2004-08-24,0.0
2004-08-25,0.0
2004-08-26,0.0
2004-08-27,0.0
2004-08-28,0.0
2004-08-29,0.0
2004-08-30,0.0
2004-08-31,0.0
2004-09-01,0.0
2004-09-02,0.0
2004-09-03,0.0
2004-09-04,0.0
2004-09-05,0.0
2004-09-06,0.0
2004-09-07,0.0
2004-09-08,0.0
2004-09-09,0.0
2004-09-10,0.0
2004-09-11,0.0
2004-09-12,0.0
2004-09-13,0.0
2004-09-14,0.0
2004-09-15,0.0
2004-09-16,0.0
2004-09-17,0.0
2004-09-18,0.0
2004-09-19,0.0
2004-09-20,0.0
2004-09-21,0.0
2004-09-22,0.0
2004-09-23,0.0
2004-09-24,0.0
2004-09-25,0.0
2004-09-26,0.0
2004-09-27,0.0
2004-09-28,0.0
2004-09-29,0.0
2004-09-30,0.0
2004-10-01,0.0
2004-10-02,0.0
2004-10-03,0.0
2004-10-04,0.0
2004-10-05,0.0
2004-10-06,0.0
2004-10-07,0.0
2004-10-08,0.0
2004-10-09,0.0
2004-10-10,0.0
2004-10-11,0.0
2004-10-12,0.0
2004-10-13,0.0
2004-10-14,0.0
2004-10-15,0.0
2004-10-16,0.0
2004-10-17,0.0
2004-10-18,0.0
2004-10-19,0.0
2004-10-20,0.0
2004-10-21,0.0
2004-10-22,0.0
2004-10-23,0.0
2004-10-24,0.0
2004-10-25,0.0
2004-10-26,2.0
2004-10-27,2.0
2004-10-28,2.0
2004-10-29,2.0
2004-10-30,1.0
2004-10-31,1.0
2004-11-01,1.0
2004-11-02,0.0
2004-11-03,0.0
2004-11-04,0.0
2004-11-05,0.0
2004-11-06,0.0
2004-11-07,0.0
2004-11-08,0.0
2004-11-09,0.0
2004-11-10,0.0
2004-11-11,0.0
2004-11-12,0.0
2004-11-13,0.0
2004-11-14,0.0
2004-11-15,0.0
2004-11-16,0.0
2004-11-17,0.0
2004-11-18,0.0
2004-11-19,0.0
2004-11-20,0.0
2004-11-21,0.0
2004-11-22,0.0
2004-11-23,0.0
2004-11-24,0.0
2004-11-25,0.0
2004-11-26,0.0
2004-11-27,0.0
2004-11-28,0.0
2004-11-29,0.0
2004-11-30,0.0
2004-12-01,0.0
2004-12-02,0.0
2004-12-03,0.0
2004-12-04,0.0
2004-12-05,0.0
2004-12-06,0.0
2004-12-07,15.0
2004-12-08,16.0
2004-12-09,18.0
2004-12-10,12.0
2004-12-11,9.0
2004-12-12,5.0
2004-12-13,6.0
2004-12-14,5.0
2004-12-15,5.0
2004-12-16,5.0
2004-12-17,5.0
2004-12-18,4.0
2004-12-19,3.0
2004-12-20,4.0
2004-12-21,4.0
2004-12-22,4.0
2004-12-23,4.0
2004-12-24,4.0
2004-12-25,3.0
2004-12-26,3.0
2004-12-27,14.0
2004-12-28,12.0
2004-12-29,11.0
2004-12-30,12.0
2004-12-31,13.0
2005-01-01,17.0
2005-01-02,21.0
2005-01-03,19.0
2005-01-04,18.0
2005-01-05,18.0
2005-01-06,17.0
2005-01-07,16.0
2005-01-08,22.0
2005-01-09,27.0
2005-01-10,27.0
2005-01-11,25.0
2005-01-12,24.0
2005-01-13,23.0
2005-01-14,22.0
2005-01-15,20.0
2005-01-16,19.0
2005-01-17,16.0
2005-01-18,14.0
2005-01-19,12.0
2005-01-20,11.0
2005-01-21,10.0
2005-01-22,11.0
2005-01-23,10.0
2005-01-24,9.0
2005-01-25,9.0
2005-01-26,7.0
2005-01-27,7.0
2005-01-28,7.0
2005-01-29,9.0
2005-01-30,9.0
2005-01-31,8.0
2005-02-01,9.0
2005-02-02,8.0
2005-02-03,8.0
2005-02-04,7.0
2005-02-05,7.0
2005-02-06,8.0
2005-02-07,8.0
2005-02-08,10.0
2005-02-09,9.0
2005-02-10,8.0
2005-02-11,7.0
2005-02-12,7.0
2005-02-13,8.0
2005-02-14,10.0
2005-02-15,10.0
2005-02-16,9.0
2005-02-17,9.0
2005-02-18,7.0
2005-02-19,6.0
2005-02-20,6.0
2005-02-21,7.0
2005-02-22,6.0
2005-02-23,5.0
2005-02-24,5.0
2005-02-25,5.0
2005-02-26,4.0
2005-02-27,3.0
2005-02-28,2.0
2005-03-01,2.0
2005-03-02,0.0
2005-03-03,2.0
2005-03-04,2.0
2005-03-05,2.0
2005-03-06,1.0
2005-03-07,1.0
2005-03-08,0.0
2005-03-09,0.0
2005-03-10,0.0
2005-03-11,0.0
2005-03-12,0.0
2005-03-13,0.0
2005-03-14,0.0
2005-03-15,0.0
2005-03-16,0.0
2005-03-17,0.0
2005-03-18,0.0
2005-03-19,0.0
2005-03-20,0.0
2005-03-21,0.0
2005-03-22,0.0
2005-03-23,0.0
2005-03-24,0.0
2005-03-25,0.0
2005-03-26,0.0
2005-03-27,0.0
2005-03-28,2.0
2005-03-29,10.0
2005-03-30,16.0
2005-03-31,11.0
2005-04-01,6.0
2005-04-02,2.0
2005-04-03,2.0
2005-04-04,7.0
2005-04-05,6.0
2005-04-06,5.0
2005-04-07,0.0
2005-04-08,0.0
2005-04-09,0.0
2005-04-10,0.0
2005-04-11,0.0
2005-04-12,0.0
2005-04-13,0.0
2005-04-14,0.0
2005-04-15,0.0
2005-04-16,0.0
2005-04-17,0.0
2005-04-18,0.0
2005-04-19,0.0
2005-04-20,0.0
2005-04-21,0.0
2005-04-22,0.0
2005-04-23,0.0
2005-04-24,0.0
2005-04-25,0.0
2005-04-26,0.0
2005-04-27,0.0
2005-04-28,0.0
2005-04-29,0.0
2005-04-30,0.0
2005-05-01,0.0
2005-05-02,0.0
2005-05-03,0.0
2005-05-04,0.0
2005-05-05,0.0
2005-05-06,0.0
2005-05-07,0.0
2005-05-08,0.0
2005-05-09,0.0
2005-05-10,0.0
2005-05-11,0.0
2005-05-12,0.0
2005-05-13,0.0
2005-05-14,0.0
2005-05-15,0.0
2005-05-16,0.0
2005-05-17,0.0
2005-05-18,0.0
2005-05-19,0.0
2005-05-20,0.0
2005-05-21,0.0
2005-05-22,0.0
2005-05-23,0.0
2005-05-24,0.0
2005-05-25,0.0
2005-05-26,0.0
2005-05-27,0.0
2005-05-28,0.0
2005-05-29,0.0
2005-05-30,0.0
2005-05-31,0.0
2005-06-01,0.0
2005-06-02,0.0
2005-06-03,0.0
2005-06-04,0.0
2005-06-05,0.0
2005-06-06,0.0
2005-06-07,0.0
2005-06-08,0.0
2005-06-09,0.0
2005-06-10,0.0
2005-06-11,0.0
2005-06-12,0.0
2005-06-13,0.0
2005-06-14,0.0
2005-06-15,0.0
2005-06-16,0.0
2005-06-17,0.0
2005-06-18,0.0
2005-06-19,0.0
2005-06-20,0.0
2005-06-21,0.0
2005-06-22,0.0
2005-06-23,0.0
2005-06-24,0.0
2005-06-25,0.0
2005-06-26,0.0
2005-06-27,0.0
2005-06-28,0.0
2005-06-29,0.0
2005-06-30,0.0
2005-07-01,0.0
2005-07-02,0.0
2005-07-03,0.0
2005-07-04,0.0
2005-07-05,0.0
2005-07-06,0.0
2005-07-07,0.0
2005-07-08,0.0
2005-07-09,0.0
2005-07-10,0.0
2005-07-11,0.0
2005-07-12,0.0
2005-07-13,0.0
2005-07-14,0.0
2005-07-15,0.0
2005-07-16,0.0
2005-07-17,0.0
2005-07-18,0.0
2005-07-19,0.0
2005-07-20,0.0
2005-07-21,0.0
2005-07-22,0.0
2005-07-23,0.0
2005-07-24,0.0
2005-07-25,0.0
2005-07-26,0.0
2005-07-27,0.0
2005-07-28,0.0
2005-07-29,0.0
2005-07-30,0.0
2005-07-31,0.0
2005-08-01,0.0
2005-08-02,0.0
2005-08-03,0.0
2005-08-04,0.0
2005-08-05,0.0
2005-08-06,0.0
2005-08-07,0.0
2005-08-08,0.0
2005-08-09,0.0
2005-08-10,0.0
2005-08-11,0.0
2005-08-12,0.0
2005-08-13,0.0
2005-08-14,0.0
2005-08-15,0.0
2005-08-16,0.0
2005-08-17,0.0
2005-08-18,0.0
2005-08-19,0.0
2005-08-20,0.0
2005-08-21,0.0
2005-08-22,0.0
2005-08-23,0.0
2005-08-24,0.0
2005-08-25,0.0
2005-08-26,0.0
2005-08-27,0.0
2005-08-28,0.0
2005-08-29,0.0
2005-08-30,0.0
2005-08-31,0.0
2005-09-01,0.0
2005-09-02,0.0
2005-09-03,0.0
2005-09-04,0.0
2005-09-05,0.0
2005-09-06,0.0
2005-09-07,0.0
2005-09-08,0.0
2005-09-09,0.0
2005-09-10,0.0
2005-09-11,0.0
2005-09-12,0.0
2005-09-13,0.0
2005-09-14,0.0
2005-09-15,0.0
2005-09-16,0.0
2005-09-17,0.0
2005-09-18,0.0
2005-09-19,0.0
2005-09-20,0.0
2005-09-21,0.0
2005-09-22,0.0
2005-09-23,0.0
2005-09-24,0.0
2005-09-25,0.0
2005-09-26,0.0
2005-09-27,0.0
2005-09-28,0.0
2005-09-29,0.0
2005-09-30,0.0
2005-10-01,0.0
2005-10-02,0.0
2005-10-03,0.0
2005-10-04,0.0
2005-10-05,0.0
2005-10-06,0.0
2005-10-07,0.0
2005-10-08,0.0
2005-10-09,0.0
2005-10-10,0.0
2005-10-11,0.0
2005-10-12,0.0
2005-10-13,0.0
2005-10-14,0.0
2005-10-15,0.0
2005-10-16,0.0
2005-10-17,0.0
2005-10-18,0.0
2005-10-19,0.0
2005-10-20,0.0
2005-10-21,0.0
2005-10-22,0.0
2005-10-23,0.0
2005-10-24,0.0
2005-10-25,0.0
2005-10-26,0.0
2005-10-27,0.0
2005-10-28,0.0
2005-10-29,0.0
2005-10-30,0.0
2005-10-31,0.0
2005-11-01,0.0
2005-11-02,0.0
2005-11-03,0.0
2005-11-04,9.0
2005-11-05,11.0
2005-11-06,11.0
2005-11-07,16.0
2005-11-08,17.0
2005-11-09,19.0
2005-11-10,15.0
2005-11-11,11.0
2005-11-12,10.0
2005-11-13,10.0
2005-11-14,11.0
2005-11-15,10.0
2005-11-16,11.0
2005-11-17,14.0
2005-11-18,12.0
2005-11-19,12.0
2005-11-20,18.0
2005-11-21,17.0
2005-11-22,16.0
2005-11-23,16.0
2005-11-24,16.0
2005-11-25,15.0
2005-11-26,18.0
2005-11-27,17.0
2005-11-28,18.0
2005-11-29,22.0
2005-11-30,23.0
2005-12-01,16.0
2005-12-02,28.0
2005-12-03,30.0
2005-12-04,33.0
2005-12-05,21.0
2005-12-06,20.0
2005-12-07,22.0
2005-12-08,23.0
2005-12-09,23.0
2005-12-10,20.0
2005-12-11,18.0
2005-12-12,17.0
2005-12-13,17.0
2005-12-14,17.0
2005-12-15,17.0
2005-12-16,17.0
2005-12-17,17.0
2005-12-18,17.0
2005-12-19,18.0
2005-12-20,12.0
2005-12-21,10.0
2005-12-22,8.0
2005-12-23,7.0
2005-12-24,5.0
2005-12-25,4.0
2005-12-26,3.0
2005-12-27,5.0
2005-12-28,8.0
2005-12-29,11.0
2005-12-30,11.0
2005-12-31,12.0
2006-01-01,13.0
2006-01-02,21.0
2006-01-03,18.0
2006-01-04,19.0
2006-01-05,17.0
2006-01-06,14.0
2006-01-07,14.0
2006-01-08,20.0
2006-01-09,19.0
2006-01-10,19.0
2006-01-11,16.0
2006-01-12,17.0
2006-01-13,17.0
2006-01-14,16.0
2006-01-15,23.0
2006-01-16,24.0
2006-01-17,25.0
2006-01-18,31.0
2006-01-19,34.0
2006-01-20,33.0
2006-01-21,36.0
2006-01-22,34.0
2006-01-23,33.0
2006-01-24,32.0
2006-01-25,29.0
2006-01-26,32.0
2006-01-27,36.0
2006-01-28,37.0
2006-01-29,45.0
2006-01-30,46.0
2006-01-31,49.0
2006-02-01,56.0
2006-02-02,56.0
2006-02-03,55.0
2006-02-04,49.0
2006-02-05,51.0
2006-02-06,48.0
2006-02-07,47.0
2006-02-08,45.0
2006-02-09,44.0
2006-02-10,44.0
2006-02-11,42.0
2006-02-12,42.0
2006-02-13,41.0
2006-02-14,40.0
2006-02-15,39.0
2006-02-16,40.0
2006-02-17,40.0
2006-02-18,40.0
2006-02-19,40.0
2006-02-20,40.0
2006-02-21,40.0
2006-02-22,40.0
2006-02-23,39.0
2006-02-24,39.0
2006-02-25,38.0
2006-02-26,38.0
2006-02-27,38.0
2006-02-28,39.0
2006-03-01,42.0
2006-03-02,41.0
2006-03-03,44.0
2006-03-04,45.0
2006-03-05,43.0
2006-03-06,42.0
2006-03-07,46.0
2006-03-08,47.0
2006-03-09,56.0
2006-03-10,56.0
2006-03-11,57.0
2006-03-12,56.0
2006-03-13,55.0
2006-03-14,57.0
2006-03-15,56.0
2006-03-16,59.0
2006-03-17,61.0
2006-03-18,60.0
2006-03-19,59.0
2006-03-20,57.0
2006-03-21,58.0
2006-03-22,58.0
2006-03-23,57.0
2006-03-24,55.0
2006-03-25,53.0
2006-03-26,59.0
2006-03-27,55.0
2006-03-28,53.0
2006-03-29,54.0
2006-03-30,51.0
2006-03-31,51.0
2006-04-01,54.0
2006-04-02,53.0
2006-04-03,52.0
2006-04-04,52.0
2006-04-05,51.0
2006-04-06,51.0
2006-04-07,50.0
2006-04-08,48.0
2006-04-09,47.0
2006-04-10,47.0
2006-04-11,47.0
2006-04-12,46.0
2006-04-13,44.0
2006-04-14,42.0
2006-04-15,41.0
2006-04-16,50.0
2006-04-17,50.0
2006-04-18,46.0
2006-04-19,44.0
2006-04-20,41.0
2006-04-21,39.0
2006-04-22,38.0
2006-04-23,37.0
2006-04-24,35.0
2006-04-25,33.0
2006-04-26,30.0
2006-04-27,28.0
2006-04-28,25.0
2006-04-29,22.0
2006-04-30,20.0
2006-05-01,17.0
2006-05-02,16.0
2006-05-03,14.0
2006-05-04,11.0
2006-05-05,9.0
2006-05-06,6.0
2006-05-07,4.0
2006-05-08,1.0
2006-05-09,0.0
2006-05-10,0.0
2006-05-11,0.0
2006-05-12,0.0
2006-05-13,0.0
2006-05-14,0.0
2006-05-15,0.0
2006-05-16,0.0
2006-05-17,0.0
2006-05-18,0.0
2006-05-19,0.0
2006-05-20,0.0
2006-05-21,0.0
2006-05-22,0.0
2006-05-23,0.0
2006-05-24,0.0
2006-05-25,0.0
2006-05-26,0.0
2006-05-27,0.0
2006-05-28,0.0
2006-05-29,0.0
2006-05-30,0.0
2006-05-31,0.0
2006-06-01,0.0
2006-06-02,0.0
2006-06-03,0.0
2006-06-04,0.0
2006-06-05,0.0
2006-06-06,0.0
2006-06-07,0.0
2006-06-08,0.0
2006-06-09,0.0
2006-06-10,0.0
2006-06-11,0.0
2006-06-12,0.0
2006-06-13,0.0
2006-06-14,0.0
2006-06-15,0.0
2006-06-16,0.0
2006-06-17,0.0
2006-06-18,0.0
2006-06-19,0.0
2006-06-20,0.0
2006-06-21,0.0
2006-06-22,0.0
2006-06-23,0.0
2006-06-24,0.0
2006-06-25,0.0
2006-06-26,0.0
2006-06-27,0.0
2006-06-28,0.0
2006-06-29,0.0
2006-06-30,0.0
2006-07-01,0.0
2006-07-02,0.0
2006-07-03,0.0
2006-07-04,0.0
2006-07-05,0.0
2006-07-06,0.0
2006-07-07,0.0
2006-07-08,0.0
2006-07-09,0.0
2006-07-10,0.0
2006-07-11,0.0
2006-07-12,0.0
2006-07-13,0.0
2006-07-14,0.0
2006-07-15,0.0
2006-07-16,0.0
2006-07-17,0.0
2006-07-18,0.0
2006-07-19,0.0
2006-07-20,0.0
2006-07-21,0.0
2006-07-22,0.0
2006-07-23,0.0
2006-07-24,0.0
2006-07-25,0.0
2006-07-26,0.0
2006-07-27,0.0
2006-07-28,0.0
2006-07-29,0.0
2006-07-30,0.0
2006-07-31,0.0
2006-08-01,0.0
2006-08-02,0.0
2006-08-03,0.0
2006-08-04,0.0
2006-08-05,0.0
2006-08-06,0.0
2006-08-07,0.0
2006-08-08,0.0
2006-08-09,0.0
2006-08-10,0.0
2006-08-11,0.0
2006-08-12,0.0
2006-08-13,0.0
2006-08-14,0.0
2006-08-15,0.0
2006-08-16,0.0
2006-08-17,0.0
2006-08-18,0.0
2006-08-19,0.0
2006-08-20,0.0
2006-08-21,0.0
2006-08-22,0.0
2006-08-23,0.0
2006-08-24,0.0
2006-08-25,0.0
2006-08-26,0.0
2006-08-27,0.0
2006-08-28,0.0
2006-08-29,0.0
2006-08-30,0.0
2006-08-31,0.0
2006-09-01,0.0
2006-09-02,0.0
2006-09-03,0.0
2006-09-04,0.0
2006-09-05,0.0
2006-09-06,0.0
2006-09-07,0.0
2006-09-08,0.0
2006-09-09,0.0
2006-09-10,0.0
2006-09-11,0.0
2006-09-12,0.0
2006-09-13,0.0
2006-09-14,0.0
2006-09-15,0.0
2006-09-16,0.0
2006-09-17,0.0
2006-09-18,0.0
2006-09-19,0.0
2006-09-20,0.0
2006-09-21,0.0
2006-09-22,0.0
2006-09-23,0.0
2006-09-24,0.0
2006-09-25,0.0
2006-09-26,0.0
2006-09-27,0.0
2006-09-28,0.0
2006-09-29,0.0
2006-09-30,0.0
2006-10-01,0.0
2006-10-02,0.0
2006-10-03,0.0
2006-10-04,0.0
2006-10-05,0.0
2006-10-06,0.0
2006-10-07,0.0
2006-10-08,0.0
2006-10-09,0.0
2006-10-10,0.0
2006-10-11,0.0
2006-10-12,0.0
2006-10-13,0.0
2006-10-14,0.0
2006-10-15,0.0
2006-10-16,0.0
2006-10-17,0.0
2006-10-18,0.0
2006-10-19,0.0
2006-10-20,0.0
2006-10-21,0.0
2006-10-22,0.0
2006-10-23,0.0
2006-10-24,0.0
2006-10-25,0.0
2006-10-26,0.0
2006-10-27,0.0
2006-10-28,0.0
2006-10-29,0.0
2006-10-30,0.0
2006-10-31,0.0
2006-11-01,0.0
2006-11-02,0.0
2006-11-03,0.0
2006-11-04,0.0
2006-11-05,0.0
2006-11-06,0.0
2006-11-07,0.0
2006-11-08,0.0
2006-11-09,0.0
2006-11-10,0.0
2006-11-11,7.0
2006-11-12,7.0
2006-11-13,7.0
2006-11-14,8.0
2006-11-15,6.0
2006-11-16,4.0
2006-11-17,3.0
2006-11-18,2.0
2006-11-19,2.0
2006-11-20,1.0
2006-11-21,0.0
2006-11-22,7.0
2006-11-23,12.0
2006-11-24,11.0
2006-11-25,10.0
2006-11-26,11.0
2006-11-27,23.0
2006-11-28,27.0
2006-11-29,26.0
2006-11-30,23.0
2006-12-01,20.0
2006-12-02,19.0
2006-12-03,18.0
2006-12-04,17.0
2006-12-05,17.0
2006-12-06,15.0
2006-12-07,15.0
2006-12-08,13.0
2006-12-09,13.0
2006-12-10,12.0
2006-12-11,12.0
2006-12-12,12.0
2006-12-13,13.0
2006-12-14,13.0
2006-12-15,7.0
2006-12-16,10.0
2006-12-17,10.0
2006-12-18,10.0
2006-12-19,10.0
2006-12-20,10.0
2006-12-21,9.0
2006-12-22,10.0
2006-12-23,10.0
2006-12-24,10.0
2006-12-25,10.0
2006-12-26,10.0
2006-12-27,15.0
2006-12-28,20.0
2006-12-29,18.0
2006-12-30,17.0
2006-12-31,17.0
2007-01-01,17.0
2007-01-02,15.0
2007-01-03,15.0
2007-01-04,20.0
2007-01-05,23.0
2007-01-06,24.0
2007-01-07,29.0
2007-01-08,28.0
2007-01-09,26.0
2007-01-10,25.0
2007-01-11,30.0
2007-01-12,29.0
2007-01-13,27.0
2007-01-14,27.0
2007-01-15,25.0
2007-01-16,26.0
2007-01-17,28.0
2007-01-18,27.0
2007-01-19,27.0
2007-01-20,26.0
2007-01-21,26.0
2007-01-22,26.0
2007-01-23,26.0
2007-01-24,25.0
2007-01-25,24.0
2007-01-26,24.0
2007-01-27,24.0
2007-01-28,23.0
2007-01-29,24.0
2007-01-30,24.0
2007-01-31,23.0
2007-02-01,23.0
2007-02-02,23.0
2007-02-03,23.0
2007-02-04,23.0
2007-02-05,22.0
2007-02-06,21.0
2007-02-07,20.0
2007-02-08,22.0
2007-02-09,25.0
2007-02-10,22.0
2007-02-11,21.0
2007-02-12,23.0
2007-02-13,23.0
2007-02-14,22.0
2007-02-15,23.0
2007-02-16,20.0
2007-02-17,19.0
2007-02-18,18.0
2007-02-19,20.0
2007-02-20,20.0
2007-02-21,24.0
2007-02-22,33.0
2007-02-23,33.0
2007-02-24,35.0
2007-02-25,37.0
2007-02-26,49.0
2007-02-27,51.0
2007-02-28,48.0
2007-03-01,50.0
2007-03-02,50.0
2007-03-03,49.0
2007-03-04,43.0
2007-03-05,39.0
2007-03-06,36.0
2007-03-07,34.0
2007-03-08,33.0
2007-03-09,32.0
2007-03-10,32.0
2007-03-11,30.0
2007-03-12,26.0
2007-03-13,24.0
2007-03-14,23.0
2007-03-15,23.0
2007-03-16,21.0
2007-03-17,20.0
2007-03-18,18.0
2007-03-19,17.0
2007-03-20,16.0
2007-03-21,17.0
2007-03-22,16.0
2007-03-23,14.0
2007-03-24,15.0
2007-03-25,10.0
2007-03-26,11.0
2007-03-27,13.0
2007-03-28,14.0
2007-03-29,11.0
2007-03-30,11.0
2007-03-31,9.0
2007-04-01,8.0
2007-04-02,9.0
2007-04-03,8.0
2007-04-04,6.0
2007-04-05,5.0
2007-04-06,4.0
2007-04-07,2.0
2007-04-08,2.0
2007-04-09,1.0
2007-04-10,5.0
2007-04-11,2.0
2007-04-12,4.0
2007-04-13,2.0
2007-04-14,0.0
2007-04-15,1.0
2007-04-16,0.0
2007-04-17,0.0
2007-04-18,0.0
2007-04-19,0.0
2007-04-20,0.0
2007-04-21,0.0
2007-04-22,3.0
2007-04-23,0.0
2007-04-24,0.0
2007-04-25,0.0
2007-04-26,0.0
2007-04-27,0.0
2007-04-28,0.0
2007-04-29,0.0
2007-04-30,0.0
2007-05-01,0.0
2007-05-02,0.0
2007-05-03,0.0
2007-05-04,0.0
2007-05-05,0.0
2007-05-06,0.0
2007-05-07,0.0
2007-05-08,0.0
2007-05-09,0.0
2007-05-10,0.0
2007-05-11,0.0
2007-05-12,0.0
2007-05-13,0.0
2007-05-14,0.0
2007-05-15,0.0
2007-05-16,0.0
2007-05-17,0.0
2007-05-18,0.0
2007-05-19,0.0
2007-05-20,0.0
2007-05-21,0.0
2007-05-22,0.0
2007-05-23,0.0
2007-05-24,0.0
2007-05-25,0.0
2007-05-26,0.0
2007-05-27,0.0
2007-05-28,0.0
2007-05-29,0.0
2007-05-30,0.0
2007-05-31,0.0
2007-06-01,0.0
2007-06-02,0.0
2007-06-03,0.0
2007-06-04,0.0
2007-06-05,0.0
2007-06-06,0.0
2007-06-07,0.0
2007-06-08,0.0
2007-06-09,0.0
2007-06-10,0.0
2007-06-11,0.0
2007-06-12,0.0
2007-06-13,0.0
2007-06-14,0.0
2007-06-15,0.0
2007-06-16,0.0
2007-06-17,0.0
2007-06-18,0.0
2007-06-19,0.0
2007-06-20,0.0
2007-06-21,0.0
2007-06-22,0.0
2007-06-23,0.0
2007-06-24,0.0
2007-06-25,0.0
2007-06-26,0.0
2007-06-27,0.0
2007-06-28,0.0
2007-06-29,0.0
2007-06-30,0.0
2007-07-01,0.0
2007-07-02,0.0
2007-07-03,0.0
2007-07-04,0.0
2007-07-05,0.0
2007-07-06,0.0
2007-07-07,0.0
2007-07-08,0.0
2007-07-09,0.0
2007-07-10,0.0
2007-07-11,0.0
2007-07-12,0.0
2007-07-13,0.0
2007-07-14,0.0
2007-07-15,0.0
2007-07-16,0.0
2007-07-17,0.0
2007-07-18,0.0
2007-07-19,0.0
2007-07-20,0.0
2007-07-21,0.0
2007-07-22,0.0
2007-07-23,0.0
2007-07-24,0.0
2007-07-25,0.0
2007-07-26,0.0
2007-07-27,0.0
2007-07-28,0.0
2007-07-29,0.0
2007-07-30,0.0
2007-07-31,0.0
2007-08-01,0.0
2007-08-02,0.0
2007-08-03,0.0
2007-08-04,0.0
2007-08-05,0.0
2007-08-06,0.0
2007-08-07,0.0
2007-08-08,0.0
2007-08-09,0.0
2007-08-10,0.0
2007-08-11,0.0
2007-08-12,0.0
2007-08-13,0.0
2007-08-14,0.0
2007-08-15,0.0
2007-08-16,0.0
2007-08-17,0.0
2007-08-18,0.0
2007-08-19,0.0
2007-08-20,0.0
2007-08-21,0.0
2007-08-22,0.0
2007-08-23,0.0
2007-08-24,0.0
2007-08-25,0.0
2007-08-26,0.0
2007-08-27,0.0
2007-08-28,0.0
2007-08-29,0.0
2007-08-30,0.0
2007-08-31,0.0
2007-09-01,0.0
2007-09-02,0.0
2007-09-03,0.0
2007-09-04,0.0
2007-09-05,0.0
2007-09-06,0.0
2007-09-07,0.0
2007-09-08,0.0
2007-09-09,0.0
2007-09-10,0.0
2007-09-11,0.0
2007-09-12,0.0
2007-09-13,0.0
2007-09-14,0.0
2007-09-15,0.0
2007-09-16,0.0
2007-09-17,0.0
2007-09-18,0.0
2007-09-19,0.0
2007-09-20,0.0
2007-09-21,0.0
2007-09-22,0.0
2007-09-23,0.0
2007-09-24,0.0
2007-09-25,0.0
2007-09-26,0.0
2007-09-27,0.0
2007-09-28,0.0
2007-09-29,0.0
2007-09-30,0.0
2007-10-01,0.0
2007-10-02,0.0
2007-10-03,0.0
2007-10-04,0.0
2007-10-05,0.0
2007-10-06,0.0
2007-10-07,0.0
2007-10-08,0.0
2007-10-09,0.0
2007-10-10,0.0
2007-10-11,0.0
2007-10-12,0.0
2007-10-13,0.0
2007-10-14,0.0
2007-10-15,0.0
2007-10-16,0.0
2007-10-17,0.0
2007-10-18,0.0
2007-10-19,0.0
2007-10-20,0.0
2007-10-21,0.0
2007-10-22,0.0
2007-10-23,0.0
2007-10-24,0.0
2007-10-25,0.0
2007-10-26,0.0
2007-10-27,0.0
2007-10-28,0.0
2007-10-29,0.0
2007-10-30,0.0
2007-10-31,0.0
2007-11-01,0.0
2007-11-02,0.0
2007-11-03,0.0
2007-11-04,0.0
2007-11-05,0.0
2007-11-06,0.0
2007-11-07,0.0
2007-11-08,0.0
2007-11-09,0.0
2007-11-10,0.0
2007-11-11,0.0
2007-11-12,0.0
2007-11-13,0.0
2007-11-14,0.0
2007-11-15,0.0
2007-11-16,0.0
2007-11-17,0.0
2007-11-18,0.0
2007-11-19,0.0
2007-11-20,5.0
2007-11-21,4.0
2007-11-22,3.0
2007-11-23,2.0
2007-11-24,2.0
2007-11-25,1.0
2007-11-26,1.0
2007-11-27,4.0
2007-11-28,3.0
2007-11-29,3.0
2007-11-30,4.0
2007-12-01,4.0
2007-12-02,4.0
2007-12-03,1.0
2007-12-04,0.0
2007-12-05,0.0
2007-12-06,0.0
2007-12-07,3.0
2007-12-08,3.0
2007-12-09,0.0
2007-12-10,0.0
2007-12-11,0.0
2007-12-12,0.0
2007-12-13,0.0
2007-12-14,0.0
2007-12-15,2.0
2007-12-16,3.0
2007-12-17,6.0
2007-12-18,10.0
2007-12-19,12.0
2007-12-20,23.0
2007-12-21,28.0
2007-12-22,25.0
2007-12-23,25.0
2007-12-24,21.0
2007-12-25,23.0
2007-12-26,26.0
2007-12-27,27.0
2007-12-28,30.0
2007-12-29,30.0
2007-12-30,31.0
2007-12-31,35.0
2008-01-01,33.0
2008-01-02,30.0
2008-01-03,28.0
2008-01-04,29.0
2008-01-05,35.0
2008-01-06,41.0
2008-01-07,52.0
2008-01-08,50.0
2008-01-09,55.0
2008-01-10,55.0
2008-01-11,55.0
2008-01-12,51.0
2008-01-13,49.0
2008-01-14,47.0
2008-01-15,49.0
2008-01-16,48.0
2008-01-17,47.0
2008-01-18,47.0
2008-01-19,45.0
2008-01-20,45.0
2008-01-21,49.0
2008-01-22,47.0
2008-01-23,45.0
2008-01-24,45.0
2008-01-25,45.0
2008-01-26,44.0
2008-01-27,46.0
2008-01-28,56.0
2008-01-29,59.0
2008-01-30,63.0
2008-01-31,66.0
2008-02-01,70.0
2008-02-02,72.0
2008-02-03,81.0
2008-02-04,81.0
2008-02-05,77.0
2008-02-06,76.0
2008-02-07,74.0
2008-02-08,73.0
2008-02-09,72.0
2008-02-10,69.0
2008-02-11,67.0
2008-02-12,66.0
2008-02-13,64.0
2008-02-14,64.0
2008-02-15,64.0
2008-02-16,62.0
2008-02-17,61.0
2008-02-18,60.0
2008-02-19,58.0
2008-02-20,57.0
2008-02-21,57.0
2008-02-22,56.0
2008-02-23,56.0
2008-02-24,56.0
2008-02-25,54.0
2008-02-26,53.0
2008-02-27,53.0
2008-02-28,51.0
2008-02-29,51.0
2008-03-01,52.0
2008-03-02,51.0
2008-03-03,51.0
2008-03-04,49.0
2008-03-05,50.0
2008-03-06,50.0
2008-03-07,50.0
2008-03-08,51.0
2008-03-09,49.0
2008-03-10,48.0
2008-03-11,46.0
2008-03-12,46.0
2008-03-13,58.0
2008-03-14,50.0
2008-03-15,58.0
2008-03-16,57.0
2008-03-17,54.0
2008-03-18,54.0
2008-03-19,52.0
2008-03-20,51.0
2008-03-21,53.0
2008-03-22,51.0
2008-03-23,50.0
2008-03-24,48.0
2008-03-25,48.0
2008-03-26,48.0
2008-03-27,61.0
2008-03-28,56.0
2008-03-29,66.0
2008-03-30,61.0
2008-03-31,60.0
2008-04-01,58.0
2008-04-02,56.0
2008-04-03,52.0
2008-04-04,52.0
2008-04-05,53.0
2008-04-06,53.0
2008-04-07,54.0
2008-04-08,55.0
2008-04-09,54.0
2008-04-10,54.0
2008-04-11,53.0
2008-04-12,51.0
2008-04-13,48.0
2008-04-14,46.0
2008-04-15,49.0
2008-04-16,47.0
2008-04-17,45.0
2008-04-18,43.0
2008-04-19,42.0
2008-04-20,46.0
2008-04-21,51.0
2008-04-22,48.0
2008-04-23,50.0
2008-04-24,52.0
2008-04-25,45.0
2008-04-26,44.0
2008-04-27,42.0
2008-04-28,40.0
2008-04-29,39.0
2008-04-30,43.0
2008-05-01,42.0
2008-05-02,39.0
2008-05-03,37.0
2008-05-04,34.0
2008-05-05,32.0
2008-05-06,30.0
2008-05-07,28.0
2008-05-08,28.0
2008-05-09,26.0
2008-05-10,22.0
2008-05-11,21.0
2008-05-12,21.0
2008-05-13,19.0
2008-05-14,16.0
2008-05-15,14.0
2008-05-16,11.0
2008-05-17,9.0
2008-05-18,4.0
2008-05-19,2.0
2008-05-20,0.0
2008-05-21,0.0
2008-05-22,0.0
2008-05-23,0.0
2008-05-24,0.0
2008-05-25,0.0
2008-05-26,0.0
2008-05-27,0.0
2008-05-28,0.0
2008-05-29,0.0
2008-05-30,0.0
2008-05-31,0.0
2008-06-01,0.0
2008-06-02,0.0
2008-06-03,0.0
2008-06-04,0.0
2008-06-05,0.0
2008-06-06,0.0
2008-06-07,0.0
2008-06-08,0.0
2008-06-09,0.0
2008-06-10,0.0
2008-06-11,0.0
2008-06-12,0.0
2008-06-13,0.0
2008-06-14,0.0
2008-06-15,0.0
2008-06-16,0.0
2008-06-17,0.0
2008-06-18,0.0
2008-06-19,0.0
2008-06-20,0.0
2008-06-21,0.0
2008-06-22,0.0
2008-06-23,0.0
2008-06-24,0.0
2008-06-25,0.0
2008-06-26,0.0
2008-06-27,0.0
2008-06-28,0.0
2008-06-29,0.0
2008-06-30,0.0
2008-07-01,0.0
2008-07-02,0.0
2008-07-03,0.0
2008-07-04,0.0
2008-07-05,0.0
2008-07-06,0.0
2008-07-07,0.0
2008-07-08,0.0
2008-07-09,0.0
2008-07-10,0.0
2008-07-11,0.0
2008-07-12,0.0
2008-07-13,0.0
2008-07-14,0.0
2008-07-15,0.0
2008-07-16,0.0
2008-07-17,0.0
2008-07-18,0.0
2008-07-19,0.0
2008-07-20,0.0
2008-07-21,0.0
2008-07-22,0.0
2008-07-23,0.0
2008-07-24,0.0
2008-07-25,0.0
2008-07-26,0.0
2008-07-27,0.0
2008-07-28,0.0
2008-07-29,0.0
2008-07-30,0.0
2008-07-31,0.0
2008-08-01,0.0
2008-08-02,0.0
2008-08-03,0.0
2008-08-04,0.0
2008-08-05,0.0
2008-08-06,0.0
2008-08-07,0.0
2008-08-08,0.0
2008-08-09,0.0
2008-08-10,0.0
2008-08-11,0.0
2008-08-12,0.0
2008-08-13,0.0
2008-08-14,0.0
2008-08-15,0.0
2008-08-16,0.0
2008-08-17,0.0
2008-08-18,0.0
2008-08-19,0.0
2008-08-20,0.0
2008-08-21,0.0
2008-08-22,0.0
2008-08-23,0.0
2008-08-24,0.0
2008-08-25,0.0
2008-08-26,0.0
2008-08-27,0.0
2008-08-28,0.0
2008-08-29,0.0
2008-08-30,0.0
2008-08-31,0.0
2008-09-01,0.0
2008-09-02,0.0
2008-09-03,0.0
2008-09-04,0.0
2008-09-05,0.0
2008-09-06,0.0
2008-09-07,0.0
2008-09-08,0.0
2008-09-09,0.0
2008-09-10,0.0
2008-09-11,0.0
2008-09-12,0.0
2008-09-13,0.0
2008-09-14,0.0
2008-09-15,0.0
2008-09-16,0.0
2008-09-17,0.0
2008-09-18,0.0
2008-09-19,0.0
2008-09-20,0.0
2008-09-21,0.0
2008-09-22,0.0
2008-09-23,0.0
2008-09-24,0.0
2008-09-25,0.0
2008-09-26,0.0
2008-09-27,0.0
2008-09-28,0.0
2008-09-29,0.0
2008-09-30,0.0
2008-10-01,0.0
2008-10-02,0.0
2008-10-03,0.0
2008-10-04,0.0
2008-10-05,0.0
2008-10-06,0.0
2008-10-07,0.0
2008-10-08,0.0